Weather Roundup
Issued by NWS Chicago, IL

Home | Current Version | Previous Version | Text Only | Print | Product List | Glossary Off
Versions: 1 2 3 4 5 6 7 8 9 10 11 12 13 14 15 16 17 18 19 20 21 22 23 24 25 26 27 28 29 30 31 32 33 34 35 36 37 38 39 40 41 42 43 44 45 46 47 48 49 50

000
NZUS59 KLOT 221604
HRRLOT

CHICAGO AREA WEATHER ROUNDUP
NATIONAL WEATHER SERVICE CHICAGO/ROMEOVILLE IL
1100 AM CDT THU JUN 22 2017

NOTE: "FAIR" INDICATES FEW OR NO CLOUDS BELOW 12,000 FEET WITH NO
SIGNIFICANT WEATHER AND/OR OBSTRUCTIONS TO VISIBILITY.

* THESE STATIONS ARE NOT UNDER NWS QUALITY CONTROL. THEY ALSO MAY NOT
  REPORT WEATHER SUCH AS PRECIPITATION OR FOG.

ILZ005-006-012>014-019>023-221700-
NORTHEAST ILLINOIS

CITY           SKY/WX    TMP DP  RH WIND       PRES   REMARKS
OHARE          PTSUNNY   84  66  54 SW15G21   29.82F HX  86
MIDWAY         PTSUNNY   84  69  60 SW17      29.83F HX  88
AURORA         CLOUDY    83  71  67 S13       29.84F HX  87
LANSING*       MOSUNNY   83  68  60 S17G24    29.86F HX  86
JOLIET*        SUNNY     83  71  67 SW13G18   29.85F HX  88
WAUKEGAN       CLOUDY    80  69  69 SW14      29.80R HX  83
DUPAGE AIRPORT CLOUDY    82  70  66 SW17      29.82F HX  86
WHEELING       PTSUNNY   83  68  60 SW15      29.82F HX  86
MORRIS*        MOSUNNY   82  69  63 SW12      29.84S HX  86
LEWIS AIRPORT* SUNNY     84  67  57 S15       29.84F HX  86
NORTHERLY ISL    N/A     82  65  56 S9          N/A  HX  84
$$

WIZ051-052-058>065-066-070>072-221700-
SOUTHEAST WISCONSIN

CITY           SKY/WX    TMP DP  RH WIND       PRES   REMARKS
MILWAUKEE      LGT RAIN  80  67  64 SW13      29.78R HX  82
KENOSHA*       CLOUDY    81  67  62 SW18G26   29.80R HX  83
WAUKESHA       SUNNY     73  64  73 SW6       29.80R
$$

INZ001>003-010>013-019-020-221700-
NORTHWEST INDIANA

CITY           SKY/WX    TMP DP  RH WIND       PRES   REMARKS
GARY*          PTSUNNY   84  66  54 SW12      29.86F HX  86
MICHIGAN CITY* NOT AVBL
RENSSELAER*    NOT AVBL
VALPARAISO     CLOUDY    81  70  69 CALM      29.89S HX  84
$$

LMZ740>746-221700-
SOUTHERN LAKE MICHIGAN

STATION/POSITION TIME  SKY/WX   TEMP WIND        PRES    VSBY
                                AIR  DIR/SP/G
                 (UTC)          (F)  (DEG/KT/KT) (MB)    (MI)
HARRISON CRIB    1540            78  200/ 16/ 17   N/A
BURNHAM HARBOR   1600            82                N/A
CALUMET HARBOR   1530            80  200/ 13/ 16 1010.3F
BURNS HARBOR     1540            80  200/ 13/ 18 1011.5F
MICHIGAN CITY    1540            79  180/ 15/ 18   N/A
$$

ABBREVIATIONS USED IN REMARKS
   TC - TEMPERATURE IN CELSIUS
  WCI - WIND CHILL INDEX
   HX - HEAT INDEX
  VSB - VISIBILITY
$$




USA.gov is the U.S. government's official web portal to all federal, state and local government web resources and services.